Regional Weather Roundup
Issued by NWS Wakefield, VA

Home | Current Version | Previous Version | Graphics & Text | Print | Product List | Glossary On
Versions: 1 2 3 4 5 6 7 8 9 10 11 12 13 14 15 16 17 18 19 20 21 22 23 24 25 26 27 28 29 30 31 32 33 34 35 36 37 38 39 40 41 42 43 44 45 46 47 48 49 50
204
ASUS41 KAKQ 281115
RWRAKQ

REGIONAL WEATHER ROUNDUP
NATIONAL WEATHER SERVICE WAKEFIELD VA
600 AM EST TUE FEB 28 2017

Note: "fair" indicates few or no clouds below 12,000 feet with no
significant weather and/or obstructions to visibility. * = Denotes
station may not report precipitation (e.g., rain,snow,etc.),
thunder or fog.

VAZ042-051-052>054-056-281200-
NORTHERN VIRGINIA

CITY           SKY/WX    TMP DP  RH WIND       PRES   REMARKS
WASH NATIONAL  CLOUDY    49  40  71 NE3       30.32S
DULLES         CLOUDY    40  34  79 CALM      30.30F
FORT BELVOIR   CLOUDY    43  35  72 CALM      30.31S
QUANTICO       CLOUDY    45  39  79 CALM      30.32F
FREDERICKSBRG* PTCLDY    43  39  86 CALM      30.30F
STAFFORD*      MOCLDY    41  37  84 CALM      30.35S
WARRENTON      CLOUDY    38  32  80 CALM      30.30S
CULPEPER*      CLOUDY    40  35  84 CALM      30.31S
MANASSAS*      CLOUDY    39  36  89 CALM      30.31F
LEESBURG*      CLOUDY    41  36  81 MISG      30.31S
WINCHESTER     CLOUDY    39  27  60 W5        30.27F
FRONT ROYAL*   CLOUDY    36  30  80 W3        30.27F
LURAY*         CLOUDY    36  32  87 CALM      30.27F
$$

VAZ048-049-060>072-079>083-281200-
CENTRAL AND SOUTH CENTRAL VIRGINIA

CITY           SKY/WX    TMP DP  RH WIND       PRES   REMARKS
RICHMOND       MOCLDY    48  44  86 S3        30.31R
CHESTERFIELD*  CLOUDY    45  27  49 NW5       30.32S
PETERSBURG*    CLOUDY    45  43  93 CALM      30.31S
HANOVER        MOCLDY    42  37  82 CALM      30.32S
TAPPAHANNOCK*  PTCLDY    44  41  90 CALM      30.32S
QUINTON*       CLOUDY    46  46 100 CALM      30.31S
CHARLOTTSVILLE CLEAR     43  32  65 N3        30.29R
GORDONSVILLE*  CLOUDY    40  37  87 CALM      30.30R
ORANGE*        MOCLDY    41  34  75 CALM      30.31S
LOUISA*        PTCLDY    41  36  81 CALM      30.28F
BUMPASS*       FAIR      41  36  83 CALM      30.30F
FARMVILLE*     CLEAR     41  35  80 CALM      30.29F
CREWE*         FAIR      43  42  96 CALM      30.30S
FORT PICKETT*  NOT AVBL
CHASE CITY*    FAIR      46  44  92 CALM      30.30S
CLARKSVILLE*   PTSUNNY   48  41  76 CALM      30.30R
SOUTH HILL*    MOCLDY    48  45  88 CALM      30.36R
LAWRENCEVILLE* FAIR      46  42  85 CALM      30.30R
EMPORIA*       CLEAR     43  41  93 CALM      30.32R
$$

VAZ088>098-281200-
SOUTHEAST VIRGINIA

CITY           SKY/WX    TMP DP  RH WIND       PRES   REMARKS
NORFOLK        CLEAR     53  48  83 SW3       30.31S
VIRGINIA BEACH PTCLDY    48  44  86 CALM      30.31S
NORFOLK NAVAL  MOCLDY    55  49  80 S3        30.32S
WEST POINT*    PTCLDY    45  42  89 CALM      30.33S
SALUDA*        PTSUNNY   48  47  97 CALM      30.32R
NEWPORT NEWS   PTCLDY    47  45  93 CALM      30.31F
LANGLEY AFB    MOCLDY    49  46  92 CALM      30.31S
FORT EUSTIS    PTCLDY    50  45  81 CALM      30.28F
WILLIAMSBURG*  PTCLDY    52  48  87 CALM      30.32S
HR EXEC AP*    FAIR      45  39  81 CALM      30.29F
FRANKLIN*      PTCLDY    49  45  88 CALM      30.31F
US460-WAKEFLD  MOCLDY    48  45  89 CALM      30.31R
$$

VAZ020-022-025-037-045-281200-
WEST CENTRAL AND SOUTHWEST VIRGINIA

CITY           SKY/WX    TMP DP  RH WIND       PRES   REMARKS
STAUNTON*      CLEAR     31  28  88 CALM      30.29F
WAYNESBORO*    SUNNY     36  26  67 S3        30.28S
HOT SPRINGS VA CLEAR     43  28  56 CALM      30.24F
LYNCHBURG      CLEAR     38  28  67 CALM      30.30F
DANVILLE       CLEAR     38  34  85 CALM      30.30R
SOUTH BOSTON*  FAIR      42  34  73 CALM      30.30R
MARTINSVILLE   CLEAR     35  32  90 CALM      30.31S
ROANOKE        CLEAR     36  29  75 CALM      30.29F
BLACKSBURG     CLEAR     33  28  81 CALM      30.30S
DUBLIN*        CLEAR     32  29  87 W3        30.29R
MARION*        CLEAR     33  30  90 CALM      30.29R
HILLSVILLE*    CLEAR     44  31  60 S7        30.26R
RICHLANDS*     FAIR      48  37  65 CALM      30.21S
WISE*          CLOUDY    52  37  58 S10       30.21S
ABINGDON*      CLEAR     43  35  72 E5        30.23R
$$

MDZ021>025-VAZ099-100-281200-
SOUTHERN MARYLAND AND THE DELMARVA PENINSULA

CITY           SKY/WX    TMP DP  RH WIND       PRES   REMARKS
PATUXENT RIVER MOCLDY    42  42 100 CALM      30.31S
BAY BRIDGE APT CLOUDY    45  43  93 CALM      30.33R FOG
LEONARDTOWN    CLEAR     43  39  87 CALM      30.33R
DOVER          CLOUDY    47  46  96 CALM      30.31S
GEORGETOWN     CLOUDY    49  43  80 CALM      30.33S
EASTON         CLOUDY    47  39  75 CALM      30.35S
CAMBRIDGE      PTCLDY    43  39  87 CALM      30.31F
SALISBURY      PTCLDY    45  43  93 CALM      30.32S
OCEAN CITY     CLOUDY    46  44  93 CALM      30.33S
WALLOPS ISLAND PTCLDY    49  47  93 S5        30.33S
ACCOMACK*      MOCLDY    53  49  89 S6        30.32S
$$

NCZ012>017-030>032-281200-
NORTH CENTRAL AND EASTERN NORTH CAROLINA

CITY           SKY/WX    TMP DP  RH WIND       PRES   REMARKS
ROANOKE RAPIDS FAIR      45  43  93 CALM      30.30S
RALEIGH        CLEAR     53  48  83 S3        30.29F
ELIZABETH CITY CLEAR     52  51  97 CALM      30.32S
AHOSKIE*         N/A     47  46  93 CALM      30.31S
EDENTON*       CLEAR     52  49  91 CALM      30.32R
CURRITUCK*     CLEAR     53  53 100 CALM      30.32S
KILL DEVIL HLS NOT AVBL
MANTEO         PTCLDY    52  52  99 CALM      30.32S
CAPE HATTERAS  PTCLDY    58  53  84 CALM      30.33F
TARBORO*       NOT AVBL
GOLDSBORO      CLEAR     54  54 100 SE3       30.28S
WASHINGTON     CLEAR     53  51  91 CALM      30.31S
GREENVILLE     CLEAR     52  50  93 CALM      30.31S
NEW BERN       CLOUDY    52  52 100 SE7       30.32F
WILMINGTON     CLOUDY    56  56 100 NE5       30.30S
$$

VAZ048-281200-
ELSEWHERE

CITY           SKY/WX    TMP DP  RH WIND       PRES   REMARKS
HARRISBURG PA  CLOUDY    36  34  92 CALM      30.31F
BALTIMORE      CLOUDY    43  36  76 CALM      30.31F
ANNAPOLIS      CLOUDY    47  43  86 CALM      30.32S
ANDREWS AFB    CLOUDY    44  36  73 CALM      30.30S
PHILADELPHIA   CLOUDY    45  36  70 E3        30.34S
HENDERSON NC   PTCLDY    44  41  89 CALM      30.30R
GREENSBORO     CLEAR     45  40  82 CALM      30.28R
ROCKY MOUNT    CLEAR     49  48  97 CALM      30.30S
$$

VAZ100-281200-
MARINE

STATION/POSITION TIME  TEMP    WIND        PRES    WAVE   SWELL
                       AIR SEA DIR/SP/G            HT/PER HT/PER
                 (UTC) (F)     (DEG/KT/KT) (MB)    (FT/S) (FT/S)
CAPE MAY NJ      1048   52 45  130/  7/ 12 1026.6S
LEWES DE         1048   51 44  160/  5/  5 1026.8R
OCEAN-CITY-INLET 1048   49 49  200/  2/  3 1027.4S
WACHAPREAGUE VA  1048   53 52  230/  3/  6 1026.8R
THOMAS POINT MD  1100   46 44  350/  1/  2   N/A
GOOSES REEF MD   1100   46 44  160/  4/  4 1027.1    1
COVE POINT MD    1048   45     190/  8/  8 1026.9F
SOLOMONS ISLAND  1048   47 45   90/  3/  3   N/A
BISHOPS HEAD MD  1048   49 48  130/  3/  4 1026.7S
PINEY POINT MD   1048          130/  4/  5   N/A
POTOMAC MD       1100   47 46  160/  4/  4 1025.4    0
CAMBRIDGE MD     1048   48 47  120/  2/  2 1025.8F
LEWISETTA VA     1048   49 49  260/  1/  2 1025.9F
RAPPAHANNOCK LGT 1048          200/  3/  4 1027.1S
YORK RVR RNG VA  1048   51     180/  5/  6 1025.7F
YORKTOWN VA      1048   51 49   50/  3/  3 1026.1S
JAMESTOWN VA     1100   54 54  120/  4/  6   N/A     0
DOMINION TERM VA 1048   55     110/  3/  3 1026.3F
KIPTOPEKE VA     1048      50  160/  5/  6   N/A
CHES BAY BRIDGE  1048   56 49  190/  5/  6 1026.3S
CAPE HENRY VA    1048   56     180/  5/  8   N/A
WILLOUBY STN VA  1048   54      CALM  /  1 1027.2F
S CRANEY ISL VA  1048   54     180/  3/  3 1026.2R
CAPE HENRY BUOY  1042      49                N/A     2/ 9
OFFSHORE WE BUOY 1051      49                N/A     3/ 8
64NM E OF VA BCH 1050   56 50  190/  6/  8 1026.8F   4/ 6   3/ 6
DUCK PIER NC     1048   53 49  150/  7/  8 1025.9F
44100 DUCK FRF   1035      49                N/A     4/ 5
44056 DUCK FRF   1030      51                N/A     3/ 5
OREGON INLET NC  1042   58 57  130/  4/  5 1026.4F
HATTERAS NC      1048   61 63     CALM     1026.6F
DIAMOND SHLS NC  1050   69 71  210/ 16/ 17 1027.0F   4/ 8   2/ 8
CAPE LOOKOUT NC  1000   62     290/  6/  7 1027.0F
$$




USA.gov is the U.S. government's official web portal to all federal, state and local government web resources and services.